Time,TemperatureF,DewpointF,PressureIn,WindDirection,WindDirectionDegrees,WindSpeedMPH,WindSpeedGustMPH,Humidity,HourlyPrecipIn,Conditions,Clouds,dailyrainin,SoftwareType,DateUTC
2013-03-06 00:12:00,38.7,26.0,29.99,NW,306,6.0,16.0,61,0.00,,,0.00,weatherlink.com 1.10,2013-03-06 05:12:00,
2013-03-06 00:27:00,38.7,26.0,29.98,West,274,6.0,18.0,61,0.00,,,0.00,weatherlink.com 1.10,2013-03-06 05:27:00,
2013-03-06 00:42:00,38.6,26.0,29.98,West,276,6.0,22.0,62,0.00,,,0.00,weatherlink.com 1.10,2013-03-06 05:42:00,
2013-03-06 00:57:00,38.2,27.0,29.98,NW,325,11.0,18.0,64,0.00,,,0.00,weatherlink.com 1.10,2013-03-06 05:57:00,
2013-03-06 01:12:00,37.9,27.0,29.98,West,281,3.0,20.0,64,0.00,,,0.00,weatherlink.com 1.10,2013-03-06 06:12:00,
2013-03-06 01:27:00,37.8,28.0,29.97,WNW,282,6.0,14.0,67,0.00,,,0.00,weatherlink.com 1.10,2013-03-06 06:27:00,
2013-03-06 01:42:00,37.8,28.0,29.98,WNW,285,9.0,17.0,69,0.00,,,0.00,weatherlink.com 1.10,2013-03-06 06:42:00,
2013-03-06 01:57:00,37.8,28.0,29.97,WNW,303,7.0,16.0,69,0.00,,,0.00,weatherlink.com 1.10,2013-03-06 06:57:00,
2013-03-06 02:12:00,37.9,28.0,29.97,WNW,302,4.0,17.0,68,0.00,,,0.00,weatherlink.com 1.10,2013-03-06 07:12:00,
2013-03-06 02:27:00,37.7,27.0,29.97,WNW,299,16.0,20.0,66,0.00,,,0.00,weatherlink.com 1.10,2013-03-06 07:27:00,
2013-03-06 02:42:00,37.6,27.0,29.96,WNW,294,2.0,27.0,66,0.00,,,0.00,weatherlink.com 1.10,2013-03-06 07:42:00,
2013-03-06 02:57:00,32.9,30.0,29.99,WNW,302,7.0,32.0,88,0.00,,,0.00,weatherlink.com 1.10,2013-03-06 07:57:00,
2013-03-06 03:12:00,31.8,30.0,29.99,NNW,342,3.0,22.0,91,0.00,,,0.00,weatherlink.com 1.10,2013-03-06 08:12:00,
2013-03-06 03:27:00,31.9,28.0,30.00,North,352,17.0,17.0,85,0.00,,,0.00,weatherlink.com 1.10,2013-03-06 08:27:00,
2013-03-06 03:42:00,31.9,26.0,30.00,WNW,288,6.0,17.0,79,0.00,,,0.00,weatherlink.com 1.10,2013-03-06 08:42:00,
2013-03-06 03:57:00,31.7,24.0,30.01,NNW,335,10.0,19.0,74,0.00,,,0.00,weatherlink.com 1.10,2013-03-06 08:57:00,
2013-03-06 04:12:00,31.6,22.0,30.01,West,281,4.0,19.0,67,0.00,,,0.00,weatherlink.com 1.10,2013-03-06 09:12:00,
2013-03-06 04:27:00,31.5,21.0,30.01,NE,52,6.0,19.0,64,0.00,,,0.00,weatherlink.com 1.10,2013-03-06 09:27:00,
2013-03-06 04:42:00,31.4,20.0,30.01,NW,325,15.0,23.0,62,0.00,,,0.00,weatherlink.com 1.10,2013-03-06 09:42:00,
2013-03-06 04:58:00,31.3,21.0,30.02,WNW,291,4.0,21.0,65,0.00,,,0.00,weatherlink.com 1.10,2013-03-06 09:58:00,
2013-03-06 05:13:00,31.2,20.0,30.03,WNW,285,10.0,22.0,63,0.00,,,0.00,weatherlink.com 1.10,2013-03-06 10:13:00,
2013-03-06 05:28:00,31.0,20.0,30.04,West,275,5.0,19.0,63,0.00,,,0.00,weatherlink.com 1.10,2013-03-06 10:28:00,
2013-03-06 05:43:00,30.8,19.0,30.05,WNW,283,6.0,24.0,63,0.00,,,0.00,weatherlink.com 1.10,2013-03-06 10:43:00,
2013-03-06 05:58:00,30.6,19.0,30.05,NNW,347,4.0,19.0,62,0.00,,,0.00,weatherlink.com 1.10,2013-03-06 10:58:00,
2013-03-06 06:13:00,30.5,19.0,30.06,WNW,285,3.0,18.0,63,0.00,,,0.00,weatherlink.com 1.10,2013-03-06 11:13:00,
2013-03-06 06:28:00,30.5,19.0,30.05,WNW,290,5.0,21.0,62,0.00,,,0.00,weatherlink.com 1.10,2013-03-06 11:28:00,
2013-03-06 06:43:00,30.9,20.0,30.06,NNW,333,11.0,23.0,63,0.00,,,0.00,weatherlink.com 1.10,2013-03-06 11:43:00,
2013-03-06 06:58:00,31.2,20.0,30.07,WNW,288,13.0,23.0,63,0.00,,,0.00,weatherlink.com 1.10,2013-03-06 11:58:00,
2013-03-06 07:13:00,31.3,20.0,30.07,NW,316,4.0,16.0,63,0.00,,,0.00,weatherlink.com 1.10,2013-03-06 12:13:00,
2013-03-06 07:28:00,31.5,20.0,30.07,WNW,291,8.0,19.0,63,0.00,,,0.00,weatherlink.com 1.10,2013-03-06 12:28:00,
2013-03-06 07:43:00,31.7,21.0,30.08,WNW,288,11.0,21.0,64,0.00,,,0.00,weatherlink.com 1.10,2013-03-06 12:43:00,
2013-03-06 07:58:00,32.0,21.0,30.09,North,351,17.0,21.0,64,0.00,,,0.00,weatherlink.com 1.10,2013-03-06 12:58:00,
2013-03-06 08:13:00,32.3,22.0,30.09,WNW,302,7.0,22.0,65,0.00,,,0.00,weatherlink.com 1.10,2013-03-06 13:13:00,
2013-03-06 08:28:00,32.7,22.0,30.09,West,281,11.0,15.0,65,0.00,,,0.00,weatherlink.com 1.10,2013-03-06 13:28:00,
2013-03-06 08:43:00,33.2,22.0,30.09,WNW,299,11.0,15.0,64,0.00,,,0.00,weatherlink.com 1.10,2013-03-06 13:43:00,
2013-03-06 08:58:00,33.3,22.0,30.11,West,260,3.0,17.0,64,0.00,,,0.00,weatherlink.com 1.10,2013-03-06 13:58:00,
2013-03-06 09:13:00,33.3,23.0,30.12,NNW,346,3.0,17.0,65,0.00,,,0.00,weatherlink.com 1.10,2013-03-06 14:13:00,
2013-03-06 09:28:00,33.7,23.0,30.12,NW,311,9.0,30.0,64,0.00,,,0.00,weatherlink.com 1.10,2013-03-06 14:28:00,
2013-03-06 09:43:00,34.3,23.0,30.12,NW,322,11.0,35.0,64,0.00,,,0.00,weatherlink.com 1.10,2013-03-06 14:43:00,
2013-03-06 09:58:00,34.3,22.0,30.12,WNW,301,14.0,26.0,62,0.00,,,0.00,weatherlink.com 1.10,2013-03-06 14:58:00,
2013-03-06 10:13:00,34.9,23.0,30.13,NW,316,5.0,20.0,62,0.00,,,0.00,weatherlink.com 1.10,2013-03-06 15:13:00,
2013-03-06 10:28:00,35.0,23.0,30.14,NNW,339,10.0,21.0,61,0.00,,,0.00,weatherlink.com 1.10,2013-03-06 15:28:00,
2013-03-06 10:43:00,35.0,23.0,30.14,West,274,7.0,19.0,63,0.00,,,0.00,weatherlink.com 1.10,2013-03-06 15:43:00,
2013-03-06 10:58:00,34.6,23.0,30.15,North,9,2.0,16.0,64,0.00,,,0.00,weatherlink.com 1.10,2013-03-06 15:58:00,
2013-03-06 11:13:00,34.7,24.0,30.17,NNW,341,7.0,21.0,64,0.00,,,0.00,weatherlink.com 1.10,2013-03-06 16:13:00,
2013-03-06 11:28:00,35.1,24.0,30.17,NNE,16,7.0,18.0,64,0.00,,,0.00,weatherlink.com 1.10,2013-03-06 16:28:00,
2013-03-06 11:43:00,35.9,24.0,30.17,NW,307,9.0,22.0,62,0.00,,,0.00,weatherlink.com 1.10,2013-03-06 16:43:00,
2013-03-06 11:58:00,37.5,25.0,30.16,NNE,27,9.0,19.0,60,0.00,,,0.00,weatherlink.com 1.10,2013-03-06 16:58:00,
2013-03-06 12:13:00,36.8,24.0,30.18,NNW,335,10.0,25.0,59,0.00,,,0.00,weatherlink.com 1.10,2013-03-06 17:13:00,
2013-03-06 12:28:00,36.9,24.0,30.18,North,350,3.0,21.0,60,0.00,,,0.00,weatherlink.com 1.10,2013-03-06 17:28:00,
2013-03-06 12:43:00,37.5,24.0,30.18,NW,304,4.0,21.0,58,0.00,,,0.00,weatherlink.com 1.10,2013-03-06 17:43:00,
2013-03-06 12:58:00,37.9,25.0,30.18,NNE,20,9.0,17.0,59,0.00,,,0.00,weatherlink.com 1.10,2013-03-06 17:58:00,
2013-03-06 13:13:00,38.1,24.0,30.18,WNW,297,7.0,17.0,58,0.00,,,0.00,weatherlink.com 1.10,2013-03-06 18:13:00,
2013-03-06 13:28:00,38.0,24.0,30.18,NW,318,4.0,18.0,58,0.00,,,0.00,weatherlink.com 1.10,2013-03-06 18:28:00,
2013-03-06 13:43:00,38.4,25.0,30.18,WNW,300,4.0,13.0,59,0.00,,,0.00,weatherlink.com 1.10,2013-03-06 18:43:00,
2013-03-06 13:58:00,38.0,25.0,30.19,NW,319,6.0,21.0,59,0.00,,,0.00,weatherlink.com 1.10,2013-03-06 18:58:00,
2013-03-06 14:13:00,38.2,25.0,30.18,NW,319,7.0,22.0,59,0.00,,,0.00,weatherlink.com 1.10,2013-03-06 19:13:00,
2013-03-06 14:28:00,39.6,26.0,30.18,NNW,339,18.0,18.0,58,0.00,,,0.00,weatherlink.com 1.10,2013-03-06 19:28:00,
2013-03-06 14:43:00,39.5,26.0,30.18,North,351,6.0,17.0,58,0.00,,,0.00,weatherlink.com 1.10,2013-03-06 19:43:00,
2013-03-06 14:58:00,39.1,26.0,30.19,NNW,342,3.0,17.0,60,0.00,,,0.00,weatherlink.com 1.10,2013-03-06 19:58:00,
2013-03-06 15:13:00,39.0,26.0,30.19,WNW,303,12.0,20.0,59,0.00,,,0.00,weatherlink.com 1.10,2013-03-06 20:13:00,
2013-03-06 15:28:00,39.2,26.0,30.19,NNW,330,10.0,20.0,60,0.00,,,0.00,weatherlink.com 1.10,2013-03-06 20:28:00,
2013-03-06 15:43:00,39.9,26.0,30.19,North,353,4.0,20.0,59,0.00,,,0.00,weatherlink.com 1.10,2013-03-06 20:43:00,
2013-03-06 15:59:00,40.8,27.0,30.20,ENE,66,4.0,13.0,58,0.00,,,0.00,weatherlink.com 1.10,2013-03-06 20:59:00,
2013-03-06 16:14:00,40.9,27.0,30.20,NNE,27,7.0,18.0,57,0.00,,,0.00,weatherlink.com 1.10,2013-03-06 21:14:00,
2013-03-06 16:29:00,41.9,27.0,30.20,NNE,21,5.0,14.0,56,0.00,,,0.00,weatherlink.com 1.10,2013-03-06 21:29:00,
2013-03-06 16:44:00,41.6,27.0,30.20,NW,319,9.0,21.0,56,0.00,,,0.00,weatherlink.com 1.10,2013-03-06 21:44:00,
2013-03-06 16:59:00,41.7,27.0,30.20,NNW,341,7.0,13.0,57,0.00,,,0.00,weatherlink.com 1.10,2013-03-06 21:59:00,
2013-03-06 17:14:00,41.8,27.0,30.21,North,349,6.0,15.0,56,0.00,,,0.00,weatherlink.com 1.10,2013-03-06 22:14:00,
2013-03-06 17:29:00,41.9,27.0,30.22,NNE,16,5.0,17.0,55,0.00,,,0.00,weatherlink.com 1.10,2013-03-06 22:29:00,
2013-03-06 17:44:00,41.9,26.0,30.22,ESE,115,2.0,19.0,53,0.00,,,0.00,weatherlink.com 1.10,2013-03-06 22:44:00,
2013-03-06 17:59:00,41.5,26.0,30.22,WNW,300,5.0,15.0,54,0.00,,,0.00,weatherlink.com 1.10,2013-03-06 22:59:00,
2013-03-06 18:14:00,41.1,26.0,30.23,WNW,299,2.0,19.0,55,0.00,,,0.00,weatherlink.com 1.10,2013-03-06 23:14:00,
2013-03-06 18:29:00,40.2,25.0,30.23,NNW,327,9.0,20.0,56,0.00,,,0.00,weatherlink.com 1.10,2013-03-06 23:29:00,
2013-03-06 18:44:00,39.6,26.0,30.24,NNW,330,16.0,20.0,58,0.00,,,0.00,weatherlink.com 1.10,2013-03-06 23:44:00,
2013-03-06 18:59:00,39.0,26.0,30.25,NNW,330,8.0,14.0,60,0.00,,,0.00,weatherlink.com 1.10,2013-03-06 23:59:00,
2013-03-06 19:14:00,38.5,26.0,30.25,North,8,4.0,17.0,61,0.00,,,0.00,weatherlink.com 1.10,2013-03-07 00:14:00,
2013-03-06 19:30:00,38.3,26.0,30.25,NNW,344,15.0,19.0,62,0.00,,,0.00,weatherlink.com 1.10,2013-03-07 00:30:00,
2013-03-06 19:44:00,37.9,26.0,30.25,WNW,291,3.0,14.0,63,0.00,,,0.00,weatherlink.com 1.10,2013-03-07 00:44:00,
2013-03-06 19:59:00,37.6,26.0,30.26,NW,314,11.0,13.0,64,0.00,,,0.00,weatherlink.com 1.10,2013-03-07 00:59:00,
2013-03-06 20:14:00,37.3,26.0,30.26,West,274,9.0,18.0,64,0.00,,,0.00,weatherlink.com 1.10,2013-03-07 01:14:00,
2013-03-06 20:29:00,37.1,26.0,30.27,NNE,33,6.0,14.0,65,0.00,,,0.00,weatherlink.com 1.10,2013-03-07 01:29:00,
2013-03-06 20:44:00,36.8,26.0,30.27,NNE,16,10.0,14.0,66,0.00,,,0.00,weatherlink.com 1.10,2013-03-07 01:44:00,
2013-03-06 20:59:00,36.4,26.0,30.27,NW,321,4.0,16.0,66,0.00,,,0.00,weatherlink.com 1.10,2013-03-07 01:59:00,
2013-03-06 21:14:00,36.2,26.0,30.28,North,8,12.0,16.0,67,0.00,,,0.00,weatherlink.com 1.10,2013-03-07 02:14:00,
2013-03-06 21:29:00,36.1,26.0,30.28,NW,324,5.0,15.0,68,0.00,,,0.00,weatherlink.com 1.10,2013-03-07 02:29:00,
2013-03-06 21:44:00,35.9,26.0,30.27,NW,305,10.0,16.0,68,0.00,,,0.00,weatherlink.com 1.10,2013-03-07 02:44:00,
2013-03-06 21:59:00,35.6,26.0,30.28,NNW,342,10.0,14.0,69,0.00,,,0.00,weatherlink.com 1.10,2013-03-07 02:59:00,
2013-03-06 22:14:00,35.4,27.0,30.29,NNW,328,1.0,10.0,70,0.00,,,0.00,weatherlink.com 1.10,2013-03-07 03:14:00,
2013-03-06 22:29:00,35.2,27.0,30.28,WNW,297,3.0,12.0,71,0.00,,,0.00,weatherlink.com 1.10,2013-03-07 03:29:00,
2013-03-06 22:44:00,34.9,27.0,30.29,WNW,300,6.0,12.0,72,0.00,,,0.00,weatherlink.com 1.10,2013-03-07 03:44:00,
2013-03-06 22:59:00,34.8,27.0,30.28,WNW,302,4.0,19.0,72,0.00,,,0.00,weatherlink.com 1.10,2013-03-07 03:59:00,
2013-03-06 23:14:00,34.5,27.0,30.27,North,4,11.0,11.0,73,0.00,,,0.00,weatherlink.com 1.10,2013-03-07 04:14:00,
2013-03-06 23:29:00,34.2,27.0,30.27,West,273,4.0,7.0,74,0.00,,,0.00,weatherlink.com 1.10,2013-03-07 04:29:00,
2013-03-06 23:44:00,34.0,27.0,30.27,North,8,1.0,12.0,74,0.00,,,0.00,weatherlink.com 1.10,2013-03-07 04:44:00,
2013-03-06 23:59:00,33.7,27.0,30.26,NNE,20,2.0,8.0,75,0.00,,,0.00,weatherlink.com 1.10,2013-03-07 04:59:00,